Regional Weather Roundup
Issued by NWS

Home | Current Version | Previous Version | Graphics & Text | Print | Product List | Glossary On
Versions: 1 2 3 4 5 6 7 8 9 10 11 12 13 14 15 16 17 18 19 20 21 22 23 24 25 26 27
000
ASUS45 KBOI 270610
RWRID

IDAHO REGIONAL WEATHER ROUNDUP
NATIONAL WEATHER SERVICE BOISE ID
1200 AM MDT SAT AUG 27 2016

NOTE: "FAIR" INDICATES FEW OR NO CLOUDS BELOW 12000 FEET
WITH NO SIGNIFICANT WEATHER AND/OR OBSTRUCTIONS TO VISIBILITY

IDZ012-014-270700-
SOUTHWEST IDAHO


CITY           SKY/WX    TMP DP  RH WIND       PRES   REMARKS
BOISE          PTCLDY    67  31  26 SE12      29.91S
CALDWELL       PTCLDY    58  45  62 NE5       29.89S
MOUNTAIN HOME  PTCLDY    62  29  28 E2        29.93S
$$

IDZ016-017-270700-
SOUTHCENTRAL IDAHO


CITY           SKY/WX    TMP DP  RH WIND       PRES   REMARKS
BURLEY         CLEAR     54  39  57 SW9       29.99S
JEROME         CLEAR     58  37  45 E6        29.99S
TWIN FALLS     CLEAR     58  34  40 S9        30.00S
$$

IDZ019>023-270700-
SOUTHEAST IDAHO


CITY           SKY/WX    TMP DP  RH WIND       PRES   REMARKS
IDAHO FALLS    CLEAR     54  33  45 SW6       30.02S
POCATELLO      CLEAR     59  30  33 S7        30.01F
REXBURG        CLEAR     62  29  28 S13       30.01F
$$

IDZ006-010-011-018-031-032-270700-
CENTRAL IDAHO MOUNTAINS


CITY           SKY/WX    TMP DP  RH WIND       PRES   REMARKS
MCCALL         CLEAR     57  35  43 N3        30.04S
HAILEY         CLEAR     55  36  47 NW8       30.06S
STANLEY          N/A     45  27  49 S6        30.14S
SALMON         PTCLDY    54  39  58 CALM      29.98R
CHALLIS        CLEAR     54  29  38 NW3       30.02R
$$

IDZ002-004-006-007-026-270700-
NORTHERN IDAHO


CITY           SKY/WX    TMP DP  RH WIND       PRES   REMARKS
LEWISTON       PTCLDY    73  36  25 S7        29.83S
LOWELL           N/A     59  47  64 NW5       29.91R
COEUR D`ALENE  CLOUDY    66  45  45 MISG      29.82S
MULLAN PASS    CLOUDY    59  30  33 VRB6      30.04F
$$




USA.gov is the U.S. government's official web portal to all federal, state and local government web resources and services.